Brainerd, MN

11:00 PM CDT on October 23, 2017 (GMT -0500)
Brainerd-Crow Wing County Regional

Weather History for KBRD - October, 2012

Change the Weather History Date:

Saturday, October 20, 2012

  Actual Average Record
Temperature  
Mean Temperature 46 °F 44 °F  
Max Temperature 52 °F 53 °F 81 °F (1947)
Min Temperature 41 °F 34 °F 12 °F (1972)
Degree Days  
Heating Degree Days 18 21  
Month to date heating degree days 346  
Cooling Degree Days 0 0  
Month to date cooling degree days 0  
Moisture  
Dew Point 40 °F    
Average Humidity 83    
Maximum Humidity 93    
Minimum Humidity 66    
Precipitation  
Precipitation 0.01 in 0.09 in 0.33 in (2009)
Month to date precipitation 2.09  
Snow  
Snow 0.00 in 0.00 in - ()
Month to date snowfall 0.1  
Snow Depth -    
Sea Level Pressure  
Sea Level Pressure 29.77 in    
Wind  
Wind Speed 3 mph (South)    
Max Wind Speed 13 mph    
Max Gust Speed 18 mph    
Visibility 7 miles    
Events Fog    
T = Trace of Precipitation, MM = Missing Value Source: NWS Daily Summary

Daily Weather History Graph

Daily Weather History Graph

Search for Another Location

Airport or City:

Trip Planner

Search our weather history database for the weather conditions in past years. The results will help you decide how hot, cold, wet, or windy it might be!

Date:

Astronomy

Oct. 20, 2012 Rise Set
Actual Time 7:41 AM CDT 6:20 PM CDT
Civil Twilight 7:10 AM CDT 6:50 PM CDT
Nautical Twilight 6:35 AM CDT 7:25 PM CDT
Astronomical Twilight 6:01 AM CDT 8:00 PM CDT
Moon 1:28 PM CDT (10/20) 10:57 PM CDT (10/20)
Length of Visible Light 11h 39m
Length of Day
10h 38m
Waxing Crescent, 34% of the Moon is Illuminated
Oct 20
Waxing Crescent
Oct 21
First Quarter
Oct 29
Full
Nov 6
Last Quarter
Nov 13
New

Hourly Weather History & Observations

Time (CDT) Temp. Windchill Dew Point Humidity Pressure Visibility Wind Dir Wind Speed Gust Speed Precip Events Conditions
12:53 AM 45.0 °F 42.6 °F 42.1 °F 90% 29.76 in 10.0 mi WSW 4.6 mph - N/A   Overcast
1:23 AM 42.8 °F - 39.2 °F 87% 29.73 in 5.0 mi Calm Calm - N/A   Mostly Cloudy
1:43 AM 42.8 °F - 41.0 °F 93% 29.73 in 7.0 mi Calm Calm - N/A   Mostly Cloudy
1:53 AM 44.1 °F - 41.0 °F 89% 29.75 in 7.0 mi Calm Calm - N/A   Overcast
2:22 AM 44.6 °F - 42.8 °F 93% 29.73 in 1.5 mi Calm Calm - N/A   Overcast
2:24 AM 44.6 °F - 42.8 °F 93% 29.73 in 0.8 mi Calm Calm - N/A   Overcast
2:34 AM 44.6 °F - 42.8 °F 93% 29.73 in 0.2 mi Calm Calm - N/A Fog Fog
2:53 AM 43.0 °F - 41.0 °F 93% 29.76 in 0.2 mi Calm Calm - N/A Fog Fog
3:53 AM 42.1 °F - 39.9 °F 92% 29.77 in 0.2 mi Calm Calm - N/A Fog Fog
4:17 AM 42.8 °F 41.1 °F 39.2 °F 87% 29.74 in 0.8 mi ESE 3.5 mph - 0.01 in   Mist
4:28 AM 42.8 °F - 39.2 °F 87% 29.75 in 1.0 mi Calm Calm - 0.01 in   Overcast
4:35 AM 42.8 °F - 39.2 °F 87% 29.74 in 0.8 mi Calm Calm - 0.01 in   Overcast
4:45 AM 41.0 °F - 39.2 °F 93% 29.75 in 1.5 mi Calm Calm - 0.01 in   Overcast
4:53 AM 41.0 °F - 39.0 °F 93% 29.77 in 1.0 mi Calm Calm - 0.01 in   Overcast
5:22 AM 41.0 °F - 39.2 °F 93% 29.75 in 2.0 mi Calm Calm - N/A   Overcast
5:35 AM 41.0 °F - 39.2 °F 93% 29.75 in 3.0 mi Calm Calm - N/A   Overcast
5:42 AM 41.0 °F - 39.2 °F 93% 29.75 in 2.5 mi Calm Calm - N/A   Overcast
5:49 AM 41.0 °F - 39.2 °F 93% 29.75 in 5.0 mi Calm Calm - N/A   Overcast
5:53 AM 41.0 °F - 39.0 °F 93% 29.78 in 7.0 mi Calm Calm - N/A   Overcast
6:53 AM 41.0 °F 39.0 °F 39.0 °F 93% 29.78 in 10.0 mi South 3.5 mph - N/A   Overcast
7:53 AM 41.0 °F - 37.9 °F 89% 29.79 in 10.0 mi Calm Calm - N/A   Overcast
8:53 AM 42.1 °F - 37.9 °F 85% 29.79 in 10.0 mi Calm Calm - N/A   Overcast
9:53 AM 44.1 °F 40.1 °F 37.9 °F 79% 29.80 in 10.0 mi South 6.9 mph - N/A   Overcast
10:53 AM 46.0 °F 41.9 °F 39.0 °F 76% 29.79 in 10.0 mi South 8.1 mph - N/A   Overcast
11:53 AM 48.0 °F - 39.9 °F 74% 29.80 in 10.0 mi South 9.2 mph - N/A   Overcast
12:05 PM 48.2 °F - 41.0 °F 76% 29.78 in 10.0 mi South 8.1 mph - N/A   Overcast
12:42 PM 51.8 °F - 41.0 °F 67% 29.76 in 10.0 mi South 11.5 mph - N/A   Overcast
1:53 PM 52.0 °F - 41.0 °F 66% 29.78 in 10.0 mi SSW 12.7 mph 18.4 mph N/A   Overcast
2:53 PM 51.1 °F - 41.0 °F 68% 29.77 in 10.0 mi SSE 11.5 mph - N/A   Overcast
3:53 PM 52.0 °F - 41.0 °F 66% 29.76 in 10.0 mi South 9.2 mph - N/A   Overcast
4:53 PM 51.1 °F - 41.0 °F 68% 29.77 in 10.0 mi South 9.2 mph - N/A   Overcast
5:53 PM 51.1 °F - 41.0 °F 68% 29.78 in 10.0 mi South 9.2 mph - N/A   Overcast
6:53 PM 50.0 °F - 41.0 °F 71% 29.77 in 10.0 mi South 8.1 mph - N/A   Overcast
7:53 PM 48.0 °F - 41.0 °F 77% 29.79 in 10.0 mi South 11.5 mph - N/A   Overcast
8:53 PM 48.0 °F - 41.0 °F 77% 29.80 in 10.0 mi South 11.5 mph - N/A   Overcast
9:53 PM 48.0 °F - 41.0 °F 77% 29.79 in 10.0 mi South 8.1 mph - N/A   Overcast
10:23 PM 48.2 °F - 41.0 °F 76% 29.76 in 10.0 mi South 10.4 mph - N/A   Overcast
10:53 PM 46.9 °F - 41.0 °F 80% 29.80 in 10.0 mi South 9.2 mph - N/A   Scattered Clouds
11:53 PM 46.9 °F - 41.0 °F 80% 29.80 in 10.0 mi SSE 5.8 mph - N/A   Clear